Stündliche Wetter Kyzylzhar (Saryagashskiy rayon)

Heute, 18 Mai, Dienstag

Zeit Temperatur Niederschläge Wind Luftdruck Luftfeuchtigkeit
00:00 +21°C° 0 mm 2 m/S 717 mmHg 30%
01:00 +21°C° 0 mm 2 m/S 717 mmHg 29%
02:00 +20°C° 0 mm 3 m/S 717 mmHg 28%
03:00 +20°C° 0 mm 2 m/S 717 mmHg 27%
04:00 +20°C° 0 mm 2 m/S 717 mmHg 26%
05:00 +20°C° 0 mm 2 m/S 716 mmHg 26%
06:00 +23°C° 0 mm 2 m/S 717 mmHg 25%
07:00 +25°C° 0 mm 2 m/S 717 mmHg 25%
08:00 +28°C° 0 mm 2 m/S 717 mmHg 25%
09:00 +29°C° 0 mm 2 m/S 717 mmHg 22%
10:00 +31°C° 0 mm 1 m/S 717 mmHg 19%
11:00 +33°C° 0 mm 1 m/S 717 mmHg 15%
12:00 +34°C° 0 mm 1 m/S 717 mmHg 14%
13:00 +34°C° 0 mm 1 m/S 717 mmHg 13%
14:00 +36°C° 0 mm 2 m/S 717 mmHg 12%
15:00 +35°C° 0 mm 2 m/S 716 mmHg 13%
16:00 +35°C° 0 mm 2 m/S 716 mmHg 13%
17:00 +35°C° 0 mm 2 m/S 716 mmHg 14%
18:00 +32°C° 0 mm 2 m/S 716 mmHg 17%
19:00 +29°C° 0 mm 2 m/S 715 mmHg 21%
20:00 +27°C° 0 mm 3 m/S 715 mmHg 24%
21:00 +26°C° 0 mm 3 m/S 715 mmHg 25%
22:00 +25°C° 0 mm 2 m/S 715 mmHg 27%
23:00 +24°C° 0 mm 2 m/S 715 mmHg 28%

Morgen, 19 Mai, Mittwoch

Zeit Temperatur Niederschläge Wind Luftdruck Luftfeuchtigkeit
00:00 +24°C° 0 mm 2 m/S 715 mmHg 28%
01:00 +22°C° 0 mm 3 m/S 715 mmHg 28%
02:00 +22°C° 0 mm 3 m/S 714 mmHg 29%
03:00 +21°C° 0 mm 3 m/S 714 mmHg 28%
04:00 +21°C° 0 mm 3 m/S 714 mmHg 27%
05:00 +21°C° 0 mm 3 m/S 714 mmHg 26%
06:00 +24°C° 0 mm 3 m/S 714 mmHg 26%
07:00 +26°C° 0 mm 3 m/S 715 mmHg 26%
08:00 +28°C° 0 mm 2 m/S 715 mmHg 26%
09:00 +29°C° 0 mm 3 m/S 715 mmHg 23%
10:00 +32°C° 0 mm 4 m/S 715 mmHg 21%
11:00 +34°C° 0 mm 4 m/S 715 mmHg 19%
12:00 +34°C° 0 mm 4 m/S 715 mmHg 16%
13:00 +35°C° 0 mm 3 m/S 715 mmHg 14%
14:00 +36°C° 0 mm 3 m/S 715 mmHg 12%
15:00 +36°C° 0 mm 3 m/S 715 mmHg 13%
16:00 +36°C° 0 mm 4 m/S 715 mmHg 13%
17:00 +35°C° 0 mm 4 m/S 715 mmHg 14%
18:00 +33°C° 0 mm 3 m/S 715 mmHg 17%
19:00 +29°C° 0 mm 2 m/S 714 mmHg 19%
20:00 +27°C° 0 mm 2 m/S 714 mmHg 22%
21:00 +26°C° 0 mm 2 m/S 714 mmHg 23%
22:00 +25°C° 0 mm 2 m/S 715 mmHg 25%
23:00 +24°C° 0 mm 2 m/S 715 mmHg 26%

übermorgen, 20 Mai, Donnerstag

Zeit Temperatur Niederschläge Wind Luftdruck Luftfeuchtigkeit
00:00 +23°C° 0 mm 2 m/S 715 mmHg 26%
01:00 +23°C° 0 mm 2 m/S 715 mmHg 26%
02:00 +21°C° 0 mm 2 m/S 715 mmHg 26%
03:00 +21°C° 0 mm 2 m/S 715 mmHg 26%
04:00 +21°C° 0 mm 2 m/S 715 mmHg 25%
05:00 +20°C° 0 mm 2 m/S 715 mmHg 25%
06:00 +24°C° 0 mm 2 m/S 716 mmHg 24%
07:00 +26°C° 0 mm 2 m/S 716 mmHg 24%
08:00 +28°C° 0 mm 1 m/S 717 mmHg 23%
09:00 +30°C° 0 mm 2 m/S 717 mmHg 20%
10:00 +32°C° 0 mm 2 m/S 717 mmHg 17%
11:00 +35°C° 0 mm 2 m/S 717 mmHg 14%
12:00 +35°C° 0 mm 2 m/S 717 mmHg 13%
13:00 +35°C° 0 mm 3 m/S 717 mmHg 13%
14:00 +36°C° 0 mm 3 m/S 717 mmHg 12%
15:00 +35°C° 0 mm 4 m/S 717 mmHg 14%
16:00 +35°C° 0 mm 4 m/S 717 mmHg 15%
17:00 +34°C° 0 mm 5 m/S 717 mmHg 17%
18:00 +32°C° 0 mm 4 m/S 717 mmHg 20%
19:00 +29°C° 0 mm 4 m/S 717 mmHg 24%
20:00 +27°C° 0 mm 3 m/S 717 mmHg 27%
21:00 +26°C° 0 mm 3 m/S 717 mmHg 27%
22:00 +25°C° 0 mm 3 m/S 717 mmHg 27%
23:00 +24°C° 0 mm 3 m/S 717 mmHg 27%

21 Mai, Freitag

Zeit Temperatur Niederschläge Wind Luftdruck Luftfeuchtigkeit
00:00 +24°C° 0 mm 2 m/S 717 mmHg 27%
01:00 +23°C° 0 mm 2 m/S 717 mmHg 28%
02:00 +23°C° 0 mm 2 m/S 717 mmHg 28%
03:00 +23°C° 0 mm 2 m/S 717 mmHg 28%
04:00 +21°C° 0 mm 2 m/S 717 mmHg 29%
05:00 +21°C° 0 mm 2 m/S 717 mmHg 30%
06:00 +24°C° 0 mm 2 m/S 717 mmHg 29%
07:00 +26°C° 0 mm 1 m/S 718 mmHg 28%
08:00 +28°C° 0 mm 1 m/S 718 mmHg 27%
09:00 +30°C° 0 mm 1 m/S 718 mmHg 24%
10:00 +31°C° 0 mm 2 m/S 719 mmHg 22%
11:00 +34°C° 0 mm 2 m/S 719 mmHg 20%
12:00 +34°C° 0 mm 3 m/S 718 mmHg 19%
13:00 +35°C° 0 mm 4 m/S 718 mmHg 19%
14:00 +35°C° 0 mm 5 m/S 718 mmHg 18%
15:00 +34°C° 0 mm 5 m/S 718 mmHg 20%
16:00 +34°C° 0 mm 6 m/S 718 mmHg 23%
17:00 +33°C° 0 mm 6 m/S 717 mmHg 25%
18:00 +30°C° 0 mm 5 m/S 717 mmHg 31%
19:00 +27°C° 0 mm 4 m/S 717 mmHg 38%
20:00 +25°C° 0 mm 3 m/S 717 mmHg 45%
21:00 +24°C° 0 mm 3 m/S 717 mmHg 45%
22:00 +22°C° 0 mm 3 m/S 717 mmHg 46%
23:00 +21°C° 0 mm 2 m/S 717 mmHg 46%

22 Mai, Samstag

Zeit Temperatur Niederschläge Wind Luftdruck Luftfeuchtigkeit
00:00 +21°C° 0 mm 2 m/S 717 mmHg 46%
01:00 +20°C° 0 mm 3 m/S 717 mmHg 46%
02:00 +20°C° 0 mm 3 m/S 717 mmHg 46%
03:00 +20°C° 0 mm 2 m/S 717 mmHg 47%
04:00 +19°C° 0 mm 2 m/S 717 mmHg 47%
05:00 +19°C° 0 mm 2 m/S 717 mmHg 47%
06:00 +21°C° 0 mm 2 m/S 717 mmHg 44%
07:00 +24°C° 0 mm 3 m/S 718 mmHg 40%
08:00 +26°C° 0 mm 3 m/S 718 mmHg 37%
09:00 +27°C° 0 mm 3 m/S 718 mmHg 34%
10:00 +29°C° 0 mm 4 m/S 718 mmHg 31%
11:00 +30°C° 0 mm 4 m/S 718 mmHg 28%
12:00 +32°C° 0 mm 4 m/S 718 mmHg 25%
13:00 +33°C° 0 mm 3 m/S 717 mmHg 23%
14:00 +33°C° 0 mm 3 m/S 717 mmHg 20%
15:00 +33°C° 0 mm 3 m/S 717 mmHg 21%
16:00 +32°C° 0 mm 2 m/S 717 mmHg 21%
17:00 +32°C° 0 mm 2 m/S 717 mmHg 21%
18:00 +29°C° 0 mm 2 m/S 717 mmHg 28%
19:00 +27°C° 0 mm 3 m/S 717 mmHg 35%
20:00 +24°C° 0 mm 3 m/S 717 mmHg 43%
21:00 +24°C° 0 mm 3 m/S 717 mmHg 42%
22:00 +22°C° 0 mm 3 m/S 716 mmHg 42%
23:00 +22°C° 0 mm 3 m/S 716 mmHg 42%

23 Mai, Sonntag

Zeit Temperatur Niederschläge Wind Luftdruck Luftfeuchtigkeit
00:00 +23°C° 0 mm 2 m/S 716 mmHg 42%
01:00 +21°C° 0 mm 2 m/S 716 mmHg 43%
02:00 +21°C° 0 mm 2 m/S 716 mmHg 43%
03:00 +21°C° 0 mm 2 m/S 715 mmHg 44%
04:00 +20°C° 0 mm 2 m/S 715 mmHg 44%
05:00 +20°C° 0 mm 2 m/S 715 mmHg 44%
06:00 +23°C° 0 mm 2 m/S 716 mmHg 40%
07:00 +25°C° 0 mm 2 m/S 716 mmHg 36%
08:00 +26°C° 0 mm 2 m/S 716 mmHg 32%
09:00 +28°C° 0 mm 3 m/S 716 mmHg 29%
10:00 +29°C° 0 mm 3 m/S 716 mmHg 25%
11:00 +30°C° 0 mm 3 m/S 717 mmHg 21%
12:00 +31°C° 0 mm 3 m/S 717 mmHg 20%
13:00 +31°C° 0 mm 3 m/S 716 mmHg 19%
14:00 +32°C° 0 mm 2 m/S 716 mmHg 18%
15:00 +30°C° 0 mm 4 m/S 716 mmHg 25%
16:00 +29°C° 0 mm 5 m/S 716 mmHg 31%
17:00 +28°C° 0 mm 6 m/S 716 mmHg 38%
18:00 +26°C° 0 mm 5 m/S 716 mmHg 40%
19:00 +25°C° 0 mm 5 m/S 716 mmHg 43%
20:00 +23°C° 0 mm 4 m/S 716 mmHg 46%
21:00 +22°C° 0 mm 4 m/S 716 mmHg 46%
22:00 +22°C° 0 mm 3 m/S 716 mmHg 46%
23:00 +21°C° 0 mm 2 m/S 716 mmHg 46%
Mehr zeigen

Wir brauchen deine Erlaubnis

Meteoprog und unser Service Anbieter werden persönliche Daten aufbewahren, so wie Cookies, Geräte Bezeichnung oder ähnliche Technologien von deinem Gerät und Prozess, so wie Persönliche Daten Inhalte und Werbungen, genauso wie social Media und den Verkehr zu analysieren.

  • Aufbewahrung und/oder Zugang zu deiner Geräte Informationen.

    Cookies, Geräte Bezeichnung oder andere Informationen, können aufbewahrt oder Zugang zu deinem Gerät erhalten, für den Grund, der oben angegeben wird.

  • Personalisierte Werbung und Inhalte, Messungen, Einblick in das Publikum und Produkt Entwicklung.

    Werbungen und Inhalte können personalisiert werden, basierend auf ein Profil. Mehr Daten können besser personalisierte Werbungen und Inhalte hinzufügen. Werbung und Inhalte können gezeigt und gemessen werden. Einblicke über das Publikum, welche die Werbung gesehen haben und den Inhalt, können abgeleitet werden. So wie Daten können genutzt werden, um es zu verbessern oder die Benutzer Erfahrung zu verbessern das System und die Software.

Wenn du “Ich stimme zu” klickst, erlaubst du uns, die Cookies zu benutzen die Geräte Bezeichnung, den Web oder ähnliche Technologien zu benutzen. Deine Settings, können in deinem Gerät bei deinem Browser geändert werden.

Für den bestimmten Zweck, berechtigten Interessen beruhen darauf, mehr als auf den Inhalt. Du kannst mehr darüber in unseren Privaten und Cookie Politik lesen.